Location: Haram ta Haram Freeway
(35.0583°N, 51.4202°E)
Time: 07:48:39
(UTC+03:30)

Tiangong - Pass Details

Date: 12 October 2022
Orbit: 386 x 393 km, 41.5° (Epoch: 28 November)

Event Time Altitude Azimuth Distance (km) Brightness Sun altitude
Rises 16:52:10 0° 243° (WSW) 2,260 3.8 7.5°
Reaches altitude 10° 16:54:14 10° 243° (WSW) 1,410 2.8 7.1°
Maximum altitude 16:57:25 86° 152° (SSE) 394 -2.0 6.4°
Drops below altitude 10° 17:00:38 10° 66° (ENE) 1,426 0.1 5.8°
Enters shadow 17:04:12 -5° 66° (ENE) 2,892 1.6 5.1°
Exits shadow 17:40:11 -79° 79° (ENE) 12,911 5.4 -2.2°
